COSMOS 1389

Satellite information

Favourite Embed

Satellite Type and Status

PAYLOADIN ORBIT

Key statistics

Satellite COSMOS 1389 at a glance.

Uptime

15813

Days in orbit

Revolutions

≈ 12.6

Per day

Orbit

LEO

Low Earth Orbit

Inclination

74.0

Latest

Satellite identification and parameters

Extended collection of information and parameters for COSMOS 1389.

Object identification

Identified? True

Debris? False

Object name: COSMOS 1389

International designator: 1982-073B

Object number (NORAD): 13376

Object ID (CCSDS): 13376

Country: COMMONWEALTH OF INDEPENDENT STATES (CIS)

Current information (Y/N): Y

RCS size: MEDIUM

Orbital parameters

Period: 114.704 minutes

Inclination: 74.0175 deg

SMA: 7820.126 km

Apoapsis: 1475.326 km

Periapsis: 1408.657 km

RAAN: 44.4449 deg

Eccentricy: 0.0042627

Argument of periapsis: 247.2382 deg

Mean anomaly: 268.0101 deg

Mean motion: 12.55399916 rev/day

Mean motion (dot): -0.00000017 rev/day2

B* drag term: -0.0000058897 1/REarth

Two-line elements (TLE)

Creation date: Nov. 4, 2025, 11:56 p.m.

Reference frame: TEME

Reference center: EARTH

Epoch: Nov. 4, 2025, 5:44 p.m. UTC

TLE line 0: 0 COSMOS 1389

TLE line 1: 1 13376U 82073B 25308.73957044 -.00000017 00000-0 -58897-5 0 9999

TLE line 2: 2 13376 74.0175 44.4449 0042627 247.2382 268.0101 12.55399916984003

Live tracking on map

Real-time ground track for satellite COSMOS 1389.

In-orbit conjunctions

There are no conjunctions computed for COSMOS 1389, at the moment. Check back to stay up to date, as we update our databases every day.

Go to all conjunctions

Associated space launch

Military communications satellites

COSMOS 1389 was lifted into orbit during the mission ‘Kosmos-3M | Strela-1M 241-248’, on board a Kosmos-3M space rocket.

The launch took place on July 21, 1982, 6:31 a.m. from 132/2.

For more information about the launch, click the button.

Launch to space Kosmos-3M | Strela-1M 241-248
Kosmos-3M | Strela-1M 241-248

Agency: N/A

Status: Launch Successful

Launch date: July 21, 1982, 6:31 a.m. UTC

Rocket: Kosmos-3M

Launch pad: 132/2

Location: Plesetsk Cosmodrome, Russian Federation

...

Latest news about this satellite

There are no fresh news available about this satellite. Check back as we update our databases every day.


Newsletter sign-up

Weekly statistics, charts and insights to help you stay on top of the space industry.